カタログに戻る

NIMBUS 6

運用中気象SSO
NORAD 7924·PAYLOAD·🇺🇸 United States

打ち上げ Jun 12, 1975 から Vandenberg Space Force Base

Loading…

次のパス (今後24時間)

TLE

最新Source: Space-Track

元期: Sep 14, 2026, 05:38 UTC

1 07924U 75052A   26257.23475197 -.00000020  00000-0  43706-4 0  9998
2 07924  99.9946 168.3652 0008134  12.8474 150.8518 13.40825796508065

AllMySatでNIMBUS 6をリアルタイム追跡

Download on the App Store